Location: *
(46.3500°N, 10.9000°E)
Time: 08:27:30
(UTC+00:00)

Tiros 1 despin weight - All Passes

Search period start: 19 April 2021 00:00
Search period end: 29 April 2021 00:00
Orbit: 593 x 641 km, 48.2° (Epoch: 18 April)

Date Brightness Start Highest point End Pass type
(mag) Time Alt. Az. Time Alt. Az. Time Alt. Az.
19 Apr - 03:32:51 10° SSE 03:35:18 14° SE 03:37:43 10° ESE visible
19 Apr - 05:11:41 10° SW 05:16:09 53° SSE 05:20:33 10° ENE daylight
19 Apr - 06:53:06 10° W 06:57:40 74° N 07:02:09 10° ENE daylight
19 Apr - 08:34:53 10° WNW 08:39:25 80° NNE 08:43:53 10° E daylight
19 Apr - 10:16:35 10° W 10:20:48 42° SSW 10:24:58 10° SE daylight
20 Apr - 03:47:31 10° SSW 03:51:16 25° SE 03:54:59 10° E visible
20 Apr - 05:27:49 10° WSW 05:32:24 78° SSE 05:36:56 10° ENE daylight
20 Apr - 07:09:32 10° W 07:14:05 69° N 07:18:33 10° E daylight
20 Apr - 08:51:15 10° WNW 08:55:46 80° SSW 09:00:13 10° ESE daylight
20 Apr - 10:33:13 10° W 10:36:54 25° SW 10:40:31 10° SSE daylight
21 Apr - 04:03:03 10° SW 04:07:22 41° SSE 04:11:38 10° E daylight
21 Apr - 05:44:10 10° W 05:48:45 81° NNW 05:53:17 10° ENE daylight
21 Apr - 07:25:58 10° WNW 07:30:31 73° N 07:34:59 10° E daylight
21 Apr - 09:07:38 10° WNW 09:12:02 55° SSW 09:16:22 10° SE daylight
21 Apr - 10:50:26 10° WSW 10:52:51 14° SW 10:55:16 10° S daylight
22 Apr - 02:39:26 10° S 02:42:36 18° SE 02:45:44 10° E visible
22 Apr - 04:19:00 10° SW 04:23:34 63° SSE 04:28:04 10° ENE daylight
22 Apr - 06:00:35 10° W 06:05:10 71° N 06:09:40 10° E daylight
22 Apr - 07:42:21 10° WNW 07:46:55 87° NNE 07:51:23 10° ESE daylight
22 Apr - 09:24:07 10° W 09:28:12 34° SSW 09:32:12 10° SSE daylight
23 Apr - 02:54:33 10° SSW 02:58:37 31° SE 03:02:38 10° E visible
23 Apr - 04:35:14 10° WSW 04:39:52 87° SSE 04:44:26 10° ENE daylight
23 Apr - 06:17:02 10° W 06:21:36 69° N 06:26:05 10° E daylight
23 Apr - 07:58:43 10° WNW 08:03:14 70° SSW 08:07:39 10° ESE daylight
23 Apr - 09:40:54 10° W 09:44:14 20° SW 09:47:31 10° S daylight
24 Apr - 01:31:52 10° SSE 01:33:57 13° SE 01:36:02 10° ESE visible
24 Apr - 03:10:17 10° SW 03:14:45 49° SSE 03:19:10 10° ENE visible
24 Apr - 04:51:37 10° W 04:56:14 76° N 05:00:47 10° ENE daylight
24 Apr - 06:33:25 10° WNW 06:38:00 77° N 06:42:31 10° E daylight
24 Apr - 08:15:07 10° WNW 08:19:27 46° SSW 08:23:42 10° SE daylight
24 Apr - 09:58:49 10° WSW 10:00:09 11° SW 10:01:27 10° SSW daylight
25 Apr - 01:46:16 10° SSW 01:49:54 23° SE 01:53:31 10° E visible
25 Apr - 03:26:22 10° WSW 03:30:59 73° SSE 03:35:33 10° ENE visible
25 Apr - 05:08:03 10° W 05:12:39 69° N 05:17:11 10° E daylight
25 Apr - 06:49:48 10° WNW 06:54:22 85° SSW 06:58:52 10° ESE daylight
25 Apr - 08:31:42 10° W 08:35:33 28° SW 08:39:22 10° SSE daylight
26 Apr - 02:01:41 10° SW 02:05:58 37° SSE 02:10:13 10° E visible
26 Apr - 03:42:40 10° WSW 03:47:19 85° NNW 03:51:55 10° ENE daylight
26 Apr - 05:24:28 10° W 05:29:05 71° N 05:33:36 10° E daylight
26 Apr - 07:06:10 10° WNW 07:10:39 60° SSW 07:15:04 10° SE daylight
26 Apr - 08:48:43 10° W 08:51:33 16° SW 08:54:19 10° S daylight
27 Apr - 00:38:17 10° S 00:41:13 17° SE 00:44:09 10° E visible
27 Apr - 02:17:34 10° SW 02:22:08 59° SSE 02:26:40 10° ENE visible
27 Apr - 03:59:05 10° W 04:03:43 72° N 04:08:16 10° ENE daylight
27 Apr - 05:40:52 10° WNW 05:45:28 83° N 05:50:00 10° ESE daylight
27 Apr - 07:22:37 10° W 07:26:50 38° SSW 07:30:58 10° SE daylight
28 Apr - 00:53:14 10° SSW 00:57:13 28° SE 01:01:10 10° E visible
28 Apr - 02:33:45 10° WSW 02:38:25 83° SSE 02:43:02 10° ENE visible
28 Apr - 04:15:31 10° W 04:20:09 69° N 04:24:42 10° E daylight
28 Apr - 05:57:13 10° WNW 06:01:49 75° SSW 06:06:19 10° ESE daylight
28 Apr - 07:39:19 10° W 07:42:53 23° SW 07:46:24 10° SSE daylight
28 Apr - 23:31:01 10° SSE 23:32:35 12° SE 23:34:09 10° ESE visible
